Temp
-35 -35 -35 -36 -36 -35 -35 -35 -35 -36 -36 -36 -36 -35 -35 -35 -35 -35 -35 -34 -34 -34 -33 -33 -33 -32 -32 -31 -31 -30 -30 -30 -30 -30 -30 -30 -30 -29 -29 -28 -28 -27 -27 -26 -26 -26 -25 -25 -25 -25 -25 -25 -25 -24 -24 -24 -24 -24 -24 -24 -24 -24 -24
-36 -36 -36 -36 -37 -37 -36 -36 -36 -36 -36 -37 -37 -36 -36 -36 -36 -36 -35 -35 -35 -35 -35 -34 -34 -34 -34 -33 -32 -32 -31 -31 -31 -31 -30 -30 -30 -30 -30 -29 -29 -28 -27 -27 -27 -26 -26 -26 -26 -25 -25 -25 -25 -25 -25 -25 -25 -24 -24 -24 -24 -24 -24
-37 -37 -37 -37 -38 -38 -38 -38 -37 -37 -37 -37 -37 -37 -37 -37 -37 -37 -36 -36 -36 -36 -35 -35 -35 -35 -35 -34 -34 -34 -33 -33 -32 -32 -31 -31 -31 -30 -30 -30 -29 -29 -28 -28 -27 -27 -26 -26 -26 -26 -26 -26 -25 -25 -25 -25 -25 -25 -25 -24 -24 -24 -24
-38 -38 -38 -38 -38 -39 -39 -39 -38 -38 -38 -38 -38 -38 -38 -38 -38 -38 -37 -37 -37 -36 -36 -36 -35 -35 -35 -35 -35 -35 -34 -34 -34 -33 -32 -32 -31 -31 -31 -30 -30 -30 -29 -28 -28 -27 -27 -27 -26 -26 -26 -26 -26 -26 -26 -25 -25 -25 -25 -25 -25 -25 -25
-39 -39 -39 -39 -39 -39 -39 -39 -39 -39 -39 -39 -39 -39 -39 -39 -39 -39 -38 -38 -38 -37 -37 -36 -36 -36 -36 -35 -35 -35 -35 -35 -35 -34 -34 -33 -33 -32 -32 -31 -31 -30 -30 -29 -29 -28 -28 -27 -27 -27 -26 -26 -26 -26 -26 -26 -26 -25 -25 -25 -25 -25 -25
-39 -39 -39 -39 -39 -39 -39 -39 -39 -39 -39 -39 -39 -39 -39 -39 -39 -39 -39 -39 -39 -38 -38 -38 -37 -37 -36 -36 -36 -36 -35 -35 -35 -35 -35 -34 -34 -33 -32 -32 -32 -31 -31 -30 -29 -29 -28 -28 -28 -27 -27 -27 -27 -27 -26 -26 -26 -26 -26 -25 -25 -26 -26
-39 -39 -39 -39 -39 -39 -39 -40 -40 -40 -40 -40 -40 -40 -39 -39 -39 -39 -39 -39 -39 -39 -39 -39 -38 -38 -38 -37 -37 -36 -36 -36 -35 -35 -35 -35 -34 -34 -33 -33 -32 -32 -31 -31 -30 -30 -29 -29 -28 -28 -27 -27 -27 -27 -27 -27 -26 -26 -26 -26 -26 -26 -26
-39 -39 -39 -39 -39 -40 -40 -40 -40 -40 -40 -40 -40 -40 -40 -40 -40 -40 -40 -40 -39 -39 -39 -39 -39 -39 -39 -38 -38 -37 -37 -36 -36 -36 -36 -35 -35 -35 -34 -34 -33 -33 -32 -32 -31 -31 -30 -30 -29 -29 -28 -28 -27 -27 -27 -27 -27 -26 -26 -26 -26 -26 -26
-39 -39 -39 -39 -39 -40 -40 -40 -40 -40 -40 -40 -40 -40 -40 -40 -40 -40 -40 -40 -40 -40 -40 -39 -39 -39 -39 -39 -39 -38 -38 -37 -37 -37 -36 -36 -36 -35 -35 -34 -34 -33 -33 -32 -32 -31 -31 -30 -30 -29 -29 -28 -28 -27 -27 -27 -27 -27 -27 -27 -26 -26 -26
-39 -39 -39 -39 -39 -40 -40 -40 -40 -40 -40 -40 -40 -41 -41 -41 -41 -41 -41 -41 -40 -40 -40 -40 -40 -40 -40 -39 -39 -39 -39 -38 -38 -37 -37 -37 -36 -36 -36 -35 -35 -34 -34 -33 -33 -32 -32 -31 -31 -30 -30 -29 -29 -28 -28 -27 -27 -27 -27 -27 -27 -27 -27
-39 -39 -39 -39 -39 -40 -40 -40 -40 -40 -40 -41 -41 -41 -41 -41 -41 -41 -41 -41 -41 -41 -41 -40 -40 -40 -40 -40 -40 -40 -39 -39 -39 -38 -38 -38 -37 -37 -36 -36 -35 -35 -35 -34 -33 -33 -32 -32 -31 -31 -31 -30 -30 -29 -29 -28 -28 -27 -27 -27 -27 -27 -27
-39 -39 -39 -39 -40 -40 -40 -40 -40 -41 -41 -41 -41 -41 -41 -41 -41 -41 -41 -41 -41 -41 -41 -41 -41 -41 -40 -40 -40 -40 -40 -40 -39 -39 -39 -38 -38 -38 -37 -37 -36 -36 -35 -35 -34 -34 -33 -33 -32 -32 -31 -31 -30 -30 -30 -29 -29 -28 -28 -27 -27 -27 -27
-39 -39 -39 -39 -40 -40 -40 -40 -41 -41 -41 -41 -41 -42 -42 -42 -42 -42 -42 -42 -42 -42 -42 -42 -42 -41 -41 -41 -41 -40 -40 -40 -40 -40 -39 -39 -39 -38 -38 -37 -37 -37 -36 -36 -35 -35 -34 -33 -33 -32 -32 -32 -31 -31 -30 -30 -30 -29 -29 -28 -28 -28 -28
-39 -39 -39 -40 -40 -40 -40 -40 -41 -41 -41 -41 -42 -42 -42 -42 -42 -42 -42 -43 -43 -43 -43 -43 -42 -42 -42 -42 -41 -41 -41 -40 -40 -40 -40 -39 -39 -39 -39 -38 -38 -37 -37 -37 -36 -35 -35 -34 -34 -33 -33 -32 -32 -31 -31 -31 -31 -30 -30 -29 -29 -29 -28
-39 -39 -39 -40 -40 -40 -40 -41 -41 -41 -41 -41 -42 -42 -42 -42 -42 -43 -43 -43 -43 -43 -43 -43 -43 -43 -43 -42 -42 -42 -41 -41 -41 -40 -40 -40 -40 -40 -39 -39 -39 -38 -38 -37 -37 -36 -36 -35 -35 -34 -34 -33 -33 -32 -32 -31 -31 -31 -31 -30 -30 -29 -29
-39 -39 -39 -40 -40 -40 -40 -40 -41 -41 -41 -41 -41 -42 -42 -42 -43 -43 -43 -43 -43 -43 -43 -43 -43 -43 -43 -43 -43 -42 -42 -42 -41 -41 -41 -40 -40 -40 -40 -39 -39 -39 -38 -38 -37 -37 -36 -36 -35 -35 -34 -34 -34 -33 -33 -32 -32 -31 -31 -31 -31 -30 -30
-39 -39 -39 -40 -40 -40 -40 -40 -40 -41 -41 -41 -41 -42 -42 -42 -42 -43 -43 -43 -43 -43 -43 -44 -44 -44 -44 -43 -43 -43 -43 -42 -42 -41 -41 -41 -41 -40 -40 -39 -39 -39 -39 -38 -38 -38 -37 -37 -36 -36 -35 -35 -34 -34 -33 -33 -33 -32 -32 -32 -31 -31 -31
-40 -40 -40 -40 -40 -40 -40 -40 -40 -40 -41 -41 -41 -41 -42 -42 -42 -43 -43 -43 -43 -43 -44 -44 -44 -44 -44 -44 -44 -43 -43 -43 -43 -42 -42 -42 -41 -40 -40 -40 -39 -39 -39 -39 -39 -38 -38 -37 -37 -36 -36 -36 -35 -35 -34 -34 -34 -33 -33 -32 -32 -32 -31
-40 -40 -40 -40 -40 -40 -40 -40 -40 -40 -41 -41 -41 -41 -42 -42 -42 -42 -43 -43 -43 -43 -43 -44 -44 -44 -44 -44 -44 -44 -43 -43 -43 -43 -43 -42 -41 -41 -40 -40 -40 -40 -39 -39 -39 -39 -39 -38 -38 -37 -36 -36 -36 -35 -35 -35 -34 -34 -34 -33 -33 -33 -32
-40 -40 -40 -40 -40 -40 -40 -40 -40 -40 -40 -41 -41 -41 -41 -42 -42 -42 -42 -43 -43 -43 -43 -43 -43 -43 -43 -44 -44 -44 -44 -44 -44 -43 -43 -42 -42 -41 -41 -41 -40 -40 -40 -40 -39 -39 -39 -39 -38 -38 -37 -37 -36 -36 -36 -35 -35 -35 -34 -34 -34 -33 -33
-40 -40 -40 -40 -40 -40 -40 -40 -40 -40 -40 -41 -41 -41 -41 -41 -42 -42 -42 -42 -42 -43 -43 -43 -43 -43 -43 -43 -44 -44 -44 -44 -44 -43 -43 -43 -42 -42 -42 -41 -41 -41 -40 -40 -40 -40 -39 -39 -39 -38 -38 -37 -37 -37 -36 -36 -36 -35 -35 -35 -34 -34 -34
-40 -40 -40 -40 -40 -40 -40 -40 -40 -40 -40 -40 -41 -41 -41 -41 -41 -42 -42 -42 -42 -42 -43 -43 -43 -43 -43 -43 -43 -44 -44 -44 -44 -43 -43 -43 -43 -42 -42 -42 -41 -41 -41 -41 -40 -40 -40 -39 -39 -39 -38 -38 -38 -37 -37 -36 -36 -36 -36 -35 -35 -35 -34
-40 -40 -40 -40 -40 -40 -40 -40 -40 -40 -40 -40 -40 -41 -41 -41 -41 -41 -42 -42 -42 -42 -42 -42 -43 -43 -43 -43 -43 -44 -44 -44 -44 -43 -43 -43 -43 -43 -43 -42 -42 -42 -41 -41 -41 -41 -40 -40 -39 -39 -39 -38 -38 -38 -37 -37 -37 -36 -36 -36 -36 -35 -35
-40 -40 -40 -40 -40 -40 -40 -40 -40 -40 -40 -40 -40 -40 -41 -41 -41 -41 -41 -42 -42 -42 -42 -42 -42 -42 -43 -43 -43 -43 -43 -43 -43 -43 -43 -43 -43 -43 -43 -43 -42 -42 -42 -41 -41 -41 -41 -40 -40 -40 -39 -39 -39 -38 -38 -38 -37 -37 -37 -37 -36 -36 -36
-40 -40 -40 -40 -40 -40 -40 -40 -40 -40 -40 -40 -40 -40 -40 -41 -41 -41 -41 -41 -41 -42 -42 -42 -42 -42 -42 -42 -43 -43 -43 -43 -43 -43 -43 -43 -43 -43 -43 -43 -43 -42 -42 -42 -42 -41 -41 -41 -40 -40 -40 -39 -39 -39 -39 -38 -38 -38 -37 -37 -37 -37 -37
-40 -40 -40 -40 -40 -40 -40 -40 -40 -40 -40 -40 -40 -40 -40 -40 -40 -41 -41 -41 -41 -41 -41 -42 -42 -42 -42 -42 -42 -42 -43 -43 -43 -43 -43 -43 -43 -43 -43 -43 -43 -42 -42 -42 -42 -42 -41 -41 -41 -40 -40 -40 -40 -39 -39 -39 -39 -38 -38 -38 -38 -38 -37
-40 -40 -40 -40 -40 -40 -40 -40 -40 -40 -40 -40 -40 -40 -40 -40 -40 -40 -40 -41 -41 -41 -41 -41 -41 -41 -42 -42 -42 -42 -42 -42 -42 -43 -43 -43 -43 -43 -43 -43 -43 -42 -42 -42 -42 -42 -42 -41 -41 -41 -41 -40 -40 -40 -40 -39 -39 -39 -39 -39 -38 -38 -38
-40 -40 -40 -40 -40 -40 -40 -40 -40 -40 -40 -40 -40 -40 -40 -40 -40 -40 -40 -40 -41 -41 -41 -41 -41 -41 -41 -41 -42 -42 -42 -42 -42 -42 -42 -42 -42 -42 -42 -42 -42 -42 -42 -42 -42 -42 -42 -42 -41 -41 -41 -41 -41 -40 -40 -40 -40 -40 -39 -39 -39 -39 -39
-40 -40 -40 -40 -40 -40 -40 -40 -40 -40 -40 -40 -40 -40 -40 -40 -40 -40 -40 -40 -40 -40 -40 -41 -41 -41 -41 -41 -41 -41 -42 -42 -42 -42 -42 -42 -42 -42 -42 -42 -42 -42 -42 -42 -42 -42 -42 -42 -42 -41 -41 -41 -41 -41 -41 -40 -40 -40 -40 -40 -39 -39 -39
-40 -40 -40 -40 -40 -40 -40 -40 -40 -40 -40 -40 -40 -40 -40 -40 -40 -40 -40 -40 -40 -40 -40 -40 -41 -41 -41 -41 -41 -41 -41 -41 -42 -42 -42 -42 -42 -42 -42 -42 -42 -42 -42 -42 -42 -42 -42 -42 -42 -42 -42 -41 -41 -41 -41 -41 -41 -40 -40 -40 -40 -40 -40
-40 -40 -40 -40 -40 -40 -40 -40 -40 -40 -40 -40 -40 -40 -40 -40 -40 -40 -40 -40 -40 -40 -40 -40 -40 -40 -41 -41 -41 -41 -41 -41 -41 -41 -41 -41 -41 -41 -41 -41 -41 -41 -41 -41 -42 -42 -42 -42 -42 -42 -42 -41 -41 -41 -41 -41 -41 -41 -41 -41 -41 -41 -40
-40 -40 -40 -40 -40 -40 -40 -40 -40 -40 -40 -40 -40 -40 -40 -40 -40 -40 -40 -40 -40 -40 -40 -40 -40 -40 -40 -40 -41 -41 -41 -41 -41 -41 -41 -41 -41 -41 -41 -41 -41 -41 -41 -41 -41 -41 -41 -41 -41 -41 -41 -41 -41 -41 -41 -41 -41 -41 -41 -41 -41 -41 -41
-40 -40 -40 -40 -40 -40 -40 -40 -40 -40 -40 -40 -40 -40 -40 -40 -40 -40 -40 -40 -40 -40 -40 -40 -40 -40 -40 -40 -40 -40 -40 -41 -41 -41 -41 -41 -41 -41 -41 -41 -41 -41 -41 -41 -41 -41 -41 -41 -41 -41 -41 -41 -41 -41 -41 -41 -41 -41 -41 -41 -41 -41 -41
-40 -40 -40 -40 -40 -40 -40 -40 -40 -40 -40 -40 -40 -40 -40 -40 -40 -40 -40 -40 -40 -40 -40 -40 -40 -40 -40 -40 -40 -40 -40 -40 -41 -41 -41 -41 -41 -41 -41 -41 -41 -41 -41 -41 -41 -41 -41 -41 -41 -41 -41 -41 -41 -41 -41 -41 -41 -41 -41 -41 -41 -41 -41
-40 -40 -40 -40 -41 -41 -41 -41 -41 -40 -41 -41 -41 -41 -41 -41 -40 -40 -40 -40 -40 -40 -40 -40 -41 -41 -41 -41 -41 -41 -41 -41 -41 -41 -41 -41 -41 -41 -41 -41 -41 -41 -41 -41 -41 -41 -41 -41 -41 -41 -41 -41 -41 -41 -41 -41 -41 -41 -41 -41 -41 -41 -41
-41 -41 -40 -40 -41 -41 -41 -41 -41 -41 -41 -41 -41 -41 -41 -41 -41 -41 -41 -41 -40 -40 -41 -41 -41 -41 -41 -41 -41 -41 -41 -41 -41 -41 -41 -41 -41 -41 -41 -41 -41 -41 -42 -42 -42 -42 -42 -42 -42 -42 -42 -42 -42 -42 -42 -41 -41 -41 -41 -41 -41 -41 -41
Height
5316 5312 5309 5307 5304 5303 5301 5301 5301 5301 5301 5300 5299 5299 5299 5298 5299 5299 5300 5301 5302 5303 5304 5307 5310 5312 5315 5317 5321 5325 5328 5332 5337 5340 5344 5348 5354 5359 5363 5369 5374 5381 5395 5403 5405 5412 5418 5420 5425 5431 5434 5439 5443 5447 5451 5455 5460 5464 5468 5473 5478 5481 5485
5306 5303 5300 5297 5295 5293 5291 5290 5289 5290 5290 5289 5288 5287 5287 5287 5287 5287 5287 5288 5289 5290 5291 5293 5296 5298 5300 5302 5305 5309 5312 5316 5321 5324 5329 5333 5338 5344 5348 5352 5358 5365 5376 5386 5391 5398 5403 5406 5411 5418 5422 5426 5429 5433 5437 5441 5446 5451 5455 5460 5465 5469 5473
5297 5294 5292 5289 5287 5285 5282 5281 5280 5279 5279 5278 5277 5277 5276 5276 5275 5275 5276 5276 5277 5278 5279 5281 5284 5285 5287 5288 5292 5295 5297 5301 5305 5308 5313 5318 5322 5328 5333 5337 5342 5349 5358 5368 5376 5382 5388 5392 5397 5403 5409 5412 5415 5419 5424 5428 5433 5438 5442 5447 5451 5456 5460
5289 5286 5284 5282 5279 5277 5275 5273 5271 5270 5269 5268 5268 5267 5266 5266 5265 5265 5265 5265 5265 5266 5267 5269 5271 5273 5274 5276 5279 5282 5284 5286 5290 5294 5298 5303 5307 5312 5317 5322 5327 5334 5342 5350 5359 5367 5374 5378 5382 5389 5395 5398 5402 5407 5411 5415 5420 5425 5430 5434 5438 5443 5448
5281 5279 5276 5274 5272 5270 5268 5265 5263 5262 5260 5259 5258 5258 5257 5256 5256 5255 5255 5255 5255 5255 5255 5257 5259 5261 5262 5264 5266 5269 5272 5274 5277 5280 5284 5288 5293 5297 5302 5308 5314 5319 5326 5334 5343 5351 5358 5363 5368 5374 5379 5384 5388 5394 5398 5402 5407 5412 5417 5421 5426 5432 5437
5274 5272 5269 5267 5265 5262 5260 5258 5256 5254 5252 5251 5249 5248 5248 5247 5246 5246 5246 5245 5245 5245 5245 5245 5247 5249 5251 5252 5254 5256 5260 5263 5266 5268 5271 5275 5279 5283 5288 5294 5300 5305 5311 5318 5327 5335 5342 5348 5353 5358 5364 5369 5374 5380 5385 5390 5394 5399 5403 5409 5414 5420 5426
5268 5265 5262 5260 5257 5255 5252 5250 5248 5246 5244 5242 5241 5239 5238 5237 5236 5236 5236 5236 5236 5235 5235 5235 5237 5238 5239 5240 5243 5245 5248 5251 5254 5256 5259 5262 5266 5270 5275 5281 5286 5291 5297 5304 5311 5319 5326 5334 5339 5343 5349 5355 5361 5366 5371 5376 5381 5385 5390 5397 5402 5407 5413
5261 5258 5255 5253 5250 5247 5245 5243 5241 5238 5236 5234 5232 5231 5229 5227 5226 5226 5226 5225 5225 5224 5224 5225 5227 5228 5228 5230 5231 5233 5236 5239 5241 5244 5247 5250 5253 5257 5262 5267 5272 5278 5284 5290 5296 5304 5311 5319 5325 5329 5335 5341 5346 5350 5355 5361 5367 5373 5378 5385 5390 5394 5399
5254 5251 5249 5246 5243 5240 5237 5235 5233 5231 5228 5226 5224 5222 5220 5219 5217 5216 5216 5215 5214 5214 5214 5215 5216 5217 5218 5219 5220 5222 5224 5227 5229 5231 5235 5238 5242 5245 5249 5254 5259 5264 5270 5276 5282 5290 5297 5304 5311 5316 5321 5327 5331 5334 5340 5347 5353 5358 5365 5372 5377 5381 5385
5248 5245 5242 5239 5236 5233 5230 5228 5225 5223 5220 5217 5215 5213 5212 5210 5209 5207 5206 5204 5203 5203 5202 5203 5204 5205 5207 5208 5210 5211 5214 5216 5218 5220 5224 5227 5231 5235 5238 5243 5247 5252 5257 5263 5269 5275 5282 5290 5297 5303 5307 5311 5316 5321 5326 5332 5337 5343 5351 5358 5363 5367 5372
5242 5239 5236 5233 5229 5226 5223 5220 5217 5215 5212 5209 5207 5205 5203 5201 5200 5198 5196 5194 5193 5192 5191 5191 5192 5193 5195 5197 5199 5201 5203 5205 5208 5210 5212 5216 5220 5224 5228 5232 5236 5240 5244 5250 5255 5262 5269 5276 5283 5289 5293 5297 5303 5308 5312 5317 5322 5329 5336 5342 5348 5354 5359
5236 5233 5229 5226 5223 5220 5217 5214 5210 5207 5205 5202 5199 5196 5193 5192 5190 5189 5187 5185 5183 5182 5180 5179 5180 5181 5183 5185 5188 5190 5192 5194 5197 5199 5202 5206 5210 5214 5217 5221 5225 5229 5233 5237 5243 5249 5256 5262 5269 5275 5280 5284 5290 5295 5299 5303 5308 5314 5321 5327 5333 5340 5345
5230 5227 5223 5220 5217 5214 5211 5207 5204 5201 5198 5196 5192 5189 5185 5183 5182 5180 5178 5175 5173 5171 5170 5168 5169 5170 5172 5174 5176 5178 5181 5183 5186 5189 5192 5196 5200 5203 5207 5211 5215 5219 5222 5226 5231 5237 5243 5250 5256 5263 5268 5272 5277 5282 5286 5291 5295 5300 5306 5312 5318 5324 5330
5224 5221 5218 5215 5212 5209 5205 5201 5198 5195 5192 5189 5186 5182 5179 5176 5175 5173 5170 5167 5164 5162 5161 5160 5159 5160 5161 5163 5165 5167 5170 5173 5177 5180 5184 5187 5191 5194 5197 5201 5205 5209 5213 5216 5221 5227 5232 5237 5243 5249 5255 5259 5263 5267 5272 5277 5281 5285 5291 5298 5304 5310 5315
5219 5216 5213 5210 5206 5204 5200 5196 5193 5190 5187 5183 5180 5176 5173 5171 5169 5166 5163 5160 5158 5155 5154 5153 5152 5153 5153 5155 5156 5158 5161 5164 5168 5171 5175 5178 5181 5184 5188 5192 5196 5200 5204 5208 5212 5216 5221 5225 5230 5236 5242 5245 5249 5253 5258 5263 5268 5273 5279 5285 5291 5297 5302
5214 5211 5209 5205 5202 5199 5195 5191 5188 5186 5182 5178 5175 5172 5169 5166 5164 5160 5158 5155 5153 5150 5149 5148 5147 5147 5147 5148 5149 5151 5153 5156 5159 5163 5166 5169 5172 5175 5179 5182 5187 5191 5195 5199 5202 5205 5209 5214 5219 5225 5230 5233 5236 5242 5247 5252 5258 5263 5268 5273 5279 5284 5289
5210 5207 5205 5201 5197 5194 5191 5188 5185 5182 5178 5175 5171 5168 5165 5162 5159 5156 5153 5151 5149 5147 5145 5144 5143 5142 5142 5143 5143 5145 5146 5148 5151 5155 5157 5159 5162 5166 5169 5173 5177 5182 5186 5190 5193 5196 5199 5204 5209 5214 5218 5221 5225 5231 5236 5242 5247 5252 5257 5262 5267 5272 5277
5206 5203 5201 5197 5194 5191 5188 5184 5181 5178 5175 5172 5168 5165 5162 5159 5155 5153 5150 5147 5145 5143 5141 5140 5139 5138 5138 5138 5138 5139 5140 5142 5144 5146 5148 5150 5153 5156 5159 5163 5168 5173 5177 5181 5184 5187 5190 5194 5199 5203 5208 5211 5215 5220 5225 5231 5236 5241 5246 5250 5255 5261 5266
5203 5200 5197 5194 5191 5188 5185 5182 5178 5175 5172 5169 5166 5162 5159 5156 5153 5150 5147 5144 5142 5140 5138 5137 5135 5134 5134 5133 5133 5134 5135 5137 5138 5138 5138 5140 5144 5147 5152 5156 5160 5165 5169 5172 5175 5178 5182 5185 5190 5194 5198 5202 5205 5210 5215 5220 5226 5230 5235 5239 5244 5250 5255
5199 5197 5194 5191 5188 5185 5182 5179 5176 5173 5170 5167 5163 5160 5157 5154 5151 5148 5145 5142 5140 5138 5136 5134 5133 5132 5131 5130 5130 5131 5131 5132 5131 5130 5132 5134 5138 5142 5146 5149 5152 5156 5159 5162 5166 5169 5172 5176 5181 5185 5189 5193 5196 5201 5205 5210 5215 5220 5224 5229 5234 5239 5244
5197 5194 5191 5189 5186 5183 5180 5178 5175 5171 5168 5165 5161 5158 5155 5152 5149 5146 5143 5141 5138 5136 5134 5133 5131 5130 5129 5128 5127 5128 5127 5126 5126 5127 5129 5131 5134 5137 5139 5142 5145 5148 5151 5154 5157 5160 5164 5168 5172 5176 5180 5184 5188 5192 5196 5201 5205 5210 5214 5219 5224 5229 5234
5193 5191 5189 5186 5184 5181 5179 5176 5173 5170 5167 5164 5160 5157 5154 5151 5148 5145 5142 5140 5137 5135 5133 5131 5130 5128 5127 5126 5125 5125 5124 5124 5124 5125 5126 5127 5129 5131 5133 5136 5138 5141 5144 5147 5150 5153 5156 5160 5164 5168 5172 5176 5180 5184 5188 5192 5196 5201 5205 5209 5214 5218 5223
5190 5189 5186 5184 5182 5179 5176 5174 5171 5168 5165 5162 5159 5156 5153 5150 5147 5144 5142 5139 5137 5134 5132 5131 5129 5127 5126 5125 5124 5123 5123 5122 5122 5123 5123 5124 5125 5127 5129 5131 5133 5136 5139 5141 5144 5147 5150 5153 5157 5160 5164 5168 5172 5176 5180 5184 5188 5192 5196 5200 5205 5209 5213
5187 5186 5184 5182 5179 5177 5174 5172 5169 5166 5164 5161 5158 5155 5152 5149 5146 5143 5141 5139 5136 5134 5132 5130 5129 5127 5126 5125 5124 5123 5122 5121 5121 5121 5121 5122 5123 5124 5125 5127 5129 5132 5134 5136 5139 5141 5144 5147 5150 5154 5157 5161 5165 5169 5172 5176 5180 5184 5188 5192 5196 5200 5204
5184 5183 5181 5179 5177 5174 5172 5169 5167 5164 5162 5159 5157 5154 5151 5148 5145 5143 5140 5138 5136 5134 5132 5131 5129 5127 5126 5125 5124 5123 5122 5121 5120 5120 5120 5121 5121 5122 5123 5124 5126 5128 5130 5133 5135 5137 5140 5142 5145 5148 5152 5155 5159 5162 5166 5170 5173 5177 5181 5185 5188 5192 5196
5180 5179 5178 5176 5174 5172 5169 5167 5165 5162 5160 5157 5155 5152 5150 5147 5145 5143 5140 5138 5136 5134 5132 5131 5129 5128 5126 5125 5124 5123 5122 5121 5121 5120 5120 5120 5121 5121 5122 5123 5125 5126 5128 5130 5132 5134 5136 5139 5141 5144 5147 5150 5154 5157 5160 5164 5167 5171 5174 5178 5182 5185 5189
5177 5176 5175 5173 5172 5169 5167 5165 5162 5160 5158 5155 5153 5151 5148 5146 5144 5142 5140 5138 5136 5134 5132 5131 5129 5128 5127 5125 5124 5124 5123 5122 5121 5121 5121 5121 5121 5122 5122 5123 5124 5126 5127 5128 5130 5132 5134 5136 5138 5141 5144 5146 5150 5153 5156 5159 5162 5165 5169 5172 5175 5179 5182
5173 5172 5172 5171 5169 5167 5165 5163 5161 5158 5156 5154 5151 5149 5147 5145 5143 5141 5139 5137 5136 5134 5132 5131 5130 5128 5127 5126 5125 5124 5123 5123 5122 5122 5122 5122 5122 5122 5123 5123 5124 5125 5127 5128 5129 5131 5133 5135 5137 5139 5141 5144 5147 5149 5152 5155 5158 5161 5164 5167 5170 5174 5177
5169 5169 5168 5167 5166 5165 5163 5161 5159 5157 5154 5152 5150 5148 5146 5143 5141 5140 5138 5136 5135 5134 5132 5131 5129 5128 5127 5126 5125 5125 5124 5123 5123 5123 5123 5123 5123 5123 5123 5124 5125 5126 5127 5128 5129 5131 5132 5134 5136 5138 5140 5142 5145 5147 5150 5153 5155 5158 5161 5163 5166 5169 5172
5166 5165 5165 5164 5163 5162 5160 5159 5157 5155 5153 5151 5149 5146 5144 5142 5140 5138 5137 5135 5134 5133 5132 5131 5129 5128 5127 5126 5126 5125 5124 5124 5124 5123 5123 5124 5124 5124 5124 5125 5125 5126 5127 5128 5130 5131 5133 5134 5136 5138 5140 5142 5144 5146 5148 5151 5153 5155 5158 5160 5163 5165 5167
5162 5161 5161 5161 5160 5160 5158 5156 5155 5153 5151 5149 5147 5145 5143 5141 5139 5137 5135 5134 5132 5131 5131 5130 5129 5128 5127 5126 5126 5125 5125 5124 5124 5124 5124 5124 5124 5125 5125 5126 5126 5127 5128 5129 5130 5131 5133 5134 5136 5138 5139 5141 5143 5145 5147 5149 5151 5154 5156 5158 5160 5162 5164
5157 5158 5158 5157 5157 5156 5155 5154 5153 5151 5150 5148 5146 5144 5142 5140 5138 5136 5134 5132 5131 5130 5129 5128 5128 5127 5127 5126 5126 5125 5125 5125 5125 5124 5124 5124 5125 5125 5126 5126 5127 5128 5128 5129 5131 5132 5133 5134 5136 5137 5139 5141 5143 5144 5146 5148 5150 5152 5154 5156 5157 5159 5161
5153 5153 5154 5153 5153 5153 5152 5152 5150 5149 5148 5146 5145 5143 5141 5139 5137 5135 5133 5131 5130 5128 5127 5127 5126 5126 5126 5125 5125 5125 5125 5125 5125 5125 5125 5125 5125 5125 5126 5126 5127 5128 5129 5130 5131 5132 5133 5135 5136 5137 5139 5140 5142 5144 5145 5147 5149 5150 5152 5154 5155 5157 5159
5148 5149 5150 5150 5150 5149 5149 5149 5148 5147 5146 5144 5143 5142 5140 5138 5136 5134 5132 5130 5129 5127 5126 5125 5125 5124 5124 5124 5124 5124 5124 5124 5124 5125 5125 5125 5125 5126 5126 5127 5127 5128 5129 5130 5131 5132 5133 5135 5136 5137 5138 5140 5141 5143 5144 5146 5147 5149 5151 5152 5154 5155 5157
5143 5144 5145 5146 5146 5146 5146 5145 5145 5144 5143 5142 5141 5140 5138 5137 5135 5133 5131 5130 5128 5126 5125 5124 5123 5123 5123 5123 5123 5123 5123 5123 5124 5124 5124 5125 5125 5126 5126 5127 5128 5128 5129 5130 5131 5132 5133 5134 5136 5137 5138 5139 5141 5142 5143 5145 5146 5148 5149 5151 5152 5154 5155
5139 5139 5140 5141 5142 5142 5142 5142 5141 5141 5140 5140 5139 5138 5137 5135 5134 5132 5130 5129 5127 5126 5124 5123 5122 5122 5121 5121 5121 5122 5122 5122 5123 5123 5123 5124 5124 5125 5126 5126 5127 5128 5129 5130 5131 5132 5133 5134 5135 5136 5137 5139 5140 5141 5142 5144 5145 5146 5148 5149 5150 5152 5153
Wind_Speed
66 66 66 67 68 68 68 68 66 66 66 68 69 70 71 73 74 75 77 78 79 82 84 86 87 89 92 94 96 97 97 96 97 97 98 98 98 98 100 100 101 102 100 100 100 100 99 99 100 101 101 101 101 101 101 102 102 102 102 101 99 97 95
58 59 59 60 61 62 62 63 63 62 61 63 65 66 68 69 71 72 73 73 74 75 77 78 79 80 83 86 89 91 93 94 95 97 97 98 98 97 98 99 100 101 100 100 100 101 101 100 99 99 101 102 102 101 101 102 102 102 102 101 100 99 97
53 53 53 53 54 55 56 57 57 57 57 57 59 61 62 64 66 68 69 70 71 73 74 74 75 75 77 78 81 83 86 89 91 93 95 97 98 97 97 97 98 100 100 100 100 100 101 102 101 99 99 100 102 102 102 102 102 103 103 103 102 100 98
50 49 49 49 50 51 51 52 53 53 53 54 54 55 57 58 61 63 65 67 68 70 72 72 73 73 74 75 76 77 79 81 84 88 91 94 96 97 97 97 97 97 99 100 100 100 101 102 103 102 100 100 100 101 102 103 102 102 102 102 102 101 99
48 48 48 49 49 50 50 51 52 52 52 53 53 53 53 54 55 57 59 62 64 66 68 70 71 71 72 73 74 74 75 76 78 81 85 89 92 94 95 96 96 96 97 98 99 100 100 101 103 103 103 102 101 100 101 102 103 103 102 101 100 97 95
48 48 48 49 49 50 51 51 52 53 53 54 54 54 54 54 55 55 56 57 59 62 64 66 67 68 69 71 72 73 73 73 74 76 79 82 86 90 92 94 94 95 95 96 97 98 99 100 102 104 104 104 103 101 101 101 101 102 103 102 101 98 94
47 48 48 49 49 50 50 51 52 52 53 54 54 55 56 56 57 57 57 57 58 59 61 62 63 64 66 68 69 71 72 72 72 72 74 77 81 84 88 91 93 94 94 94 95 96 97 99 100 103 104 105 105 104 103 102 101 101 102 102 102 100 97
47 47 47 48 48 49 49 50 50 51 51 52 53 54 55 56 56 57 58 58 59 60 61 61 61 61 63 65 66 67 69 69 70 71 72 73 75 78 82 86 89 92 93 93 94 94 95 96 98 100 103 104 105 106 105 104 103 102 101 101 101 101 101
46 47 47 47 48 48 49 49 49 50 51 51 52 53 54 55 56 57 57 58 59 61 62 62 62 62 62 63 63 65 66 66 67 69 69 70 72 74 77 80 84 88 90 92 93 93 93 94 95 98 100 102 104 106 107 106 105 104 103 101 101 101 102
45 45 46 46 47 47 48 48 48 49 50 51 52 52 53 54 55 56 57 58 59 60 61 62 62 63 63 63 63 63 64 64 65 66 67 67 68 70 72 75 78 82 86 89 91 92 93 93 93 95 98 100 103 105 106 107 107 106 105 104 102 102 102
43 43 44 44 45 45 45 46 46 47 48 49 50 51 52 53 53 54 55 56 57 58 60 60 61 62 63 63 63 63 63 63 63 64 65 65 66 67 68 70 73 76 80 84 88 90 91 92 92 93 95 97 100 102 104 106 108 108 107 106 105 104 103
42 41 41 41 41 42 42 43 44 45 46 47 48 49 50 50 50 51 51 52 53 55 57 58 60 60 61 61 62 63 63 63 63 63 63 63 63 63 64 66 69 71 75 78 82 86 89 91 92 93 94 95 97 99 102 104 106 107 108 108 107 106 105
40 39 39 39 39 39 40 41 42 43 43 43 44 46 47 48 47 46 47 47 48 50 52 54 56 57 58 59 60 61 63 63 63 63 62 61 61 61 62 63 65 67 70 73 76 80 84 87 90 92 93 94 95 96 99 101 103 105 107 108 108 108 107
38 37 38 37 37 37 37 38 39 39 39 40 40 42 44 44 42 41 41 41 42 43 45 47 49 51 53 56 57 59 60 62 62 62 62 61 60 60 60 61 61 63 65 68 71 74 78 82 86 89 91 93 95 95 96 98 100 102 104 106 108 108 109
36 36 36 35 34 33 33 34 35 34 35 36 37 38 39 38 37 36 36 36 37 38 38 40 41 44 46 49 52 54 56 57 59 60 60 60 60 59 59 59 59 60 61 64 66 69 72 76 81 85 88 91 94 95 96 96 97 99 101 103 105 107 108
35 35 33 32 31 31 31 32 32 31 31 32 33 33 33 32 32 32 32 32 33 33 34 34 35 37 39 41 44 47 50 52 53 55 56 57 59 59 59 59 58 58 59 60 62 66 69 71 75 79 83 88 91 93 95 95 96 96 97 99 101 103 105
34 32 31 30 30 30 30 31 31 30 30 30 29 29 28 28 28 28 28 28 28 28 29 29 30 31 33 35 37 40 42 45 47 48 51 53 56 58 59 59 58 57 57 58 59 62 65 68 70 73 77 82 87 90 92 94 94 94 95 95 97 98 100
31 30 29 28 28 29 29 29 29 28 28 27 26 26 25 24 24 24 23 23 23 23 23 23 24 25 27 29 31 33 36 37 39 42 45 49 52 55 57 58 58 57 56 57 57 59 61 64 66 69 72 76 80 85 88 90 92 93 93 93 94 94 96
28 27 26 26 26 26 26 26 25 25 24 24 24 23 22 21 21 20 20 20 20 20 20 20 21 22 23 24 26 28 29 31 34 38 42 45 48 50 52 53 54 55 56 56 57 58 59 61 63 66 68 71 74 79 83 86 89 91 92 92 92 92 93
25 24 24 23 23 23 23 23 22 22 22 22 22 21 20 20 20 19 19 19 18 18 19 19 19 19 20 21 22 23 23 26 31 36 39 41 42 43 45 47 49 51 53 55 56 58 59 59 61 63 65 68 70 73 76 80 84 87 90 91 91 91 91
22 21 20 20 20 20 21 21 21 21 21 21 21 20 20 19 19 18 17 17 16 16 16 16 16 16 16 17 18 18 19 23 28 31 33 35 36 37 39 41 44 46 49 51 53 55 57 58 59 60 62 64 66 69 71 74 78 82 85 88 89 89 89
19 17 17 17 19 20 21 21 21 20 20 20 20 20 20 19 18 16 16 15 14 14 14 13 13 13 12 13 13 14 17 20 22 23 24 27 30 32 34 36 38 41 43 46 48 50 53 54 56 57 59 61 63 65 67 69 72 75 78 82 85 87 88
17 16 16 17 19 21 22 22 22 21 20 20 20 19 19 19 18 16 15 15 14 13 13 12 11 10 9 9 9 10 13 16 16 16 18 20 23 25 28 31 33 35 37 39 42 44 47 49 51 54 55 57 59 61 63 65 67 69 71 74 78 81 84
16 16 17 18 20 22 22 23 23 22 21 20 19 19 19 19 18 17 15 14 14 13 12 11 11 9 8 7 6 7 9 11 12 12 13 15 17 20 23 26 28 30 32 34 36 38 41 43 45 48 50 52 55 57 59 61 63 64 66 68 70 73 77
17 16 17 19 20 21 22 22 22 22 22 20 18 17 17 18 18 17 15 13 13 13 12 11 10 8 7 6 5 5 6 7 8 8 9 10 12 15 18 20 22 24 27 29 31 33 35 37 39 41 43 45 48 51 53 56 58 60 61 63 64 66 68
18 18 17 18 19 20 21 21 21 21 21 20 19 17 16 16 16 16 15 13 12 12 11 10 9 8 6 5 4 3 3 4 4 5 6 7 8 10 13 15 17 18 20 23 25 27 28 30 32 34 36 38 40 43 46 49 51 53 55 57 58 60 61
20 19 17 17 18 19 19 19 19 19 19 19 19 17 16 16 15 14 14 13 12 12 11 9 8 8 6 5 3 2 1 1 2 3 4 4 5 7 9 10 11 13 15 16 18 20 22 24 26 27 29 31 33 36 38 41 43 45 47 50 52 53 55
21 20 18 16 16 17 17 18 18 17 17 18 18 17 16 16 15 14 13 12 12 12 11 9 8 7 6 5 3 2 1 1 2 2 3 4 4 5 6 8 9 10 11 12 13 15 17 19 20 22 24 25 27 29 31 34 36 38 39 42 44 46 48
21 21 19 16 16 16 16 16 16 16 16 16 16 16 16 15 15 14 13 12 11 11 10 9 8 7 5 4 2 1 1 1 2 2 3 4 5 5 6 7 8 9 9 10 11 12 13 14 15 17 18 20 22 24 25 27 29 31 33 34 36 38 40
22 21 20 17 15 15 15 15 15 15 15 15 16 16 15 15 15 14 13 12 12 10 9 8 7 6 5 4 2 1 0 1 2 3 4 4 5 6 7 8 8 9 10 10 10 11 11 12 13 13 14 15 17 18 20 21 23 24 26 27 29 31 32
23 22 21 19 17 15 15 15 14 14 14 15 15 15 15 15 14 14 13 12 12 11 10 8 7 6 5 4 2 1 0 1 2 2 3 4 5 6 7 8 9 9 10 10 11 11 11 11 12 12 13 13 14 15 16 17 18 19 20 21 22 24 25
24 23 22 21 19 16 15 15 14 14 14 14 15 15 15 15 14 14 13 12 11 11 10 10 9 7 6 5 3 1 0 1 2 2 3 4 5 6 7 8 8 9 10 10 11 11 11 12 12 12 13 13 13 14 15 15 16 16 17 18 19 20 21
25 24 23 22 21 19 16 15 15 14 14 14 14 15 15 15 14 14 13 12 11 10 10 10 10 10 9 7 6 4 3 2 2 2 3 4 4 5 6 7 7 8 8 9 10 10 11 11 11 12 12 13 13 14 14 15 15 16 16 17 18 18 19
26 26 24 23 22 21 19 17 16 15 15 15 15 15 15 15 15 14 13 12 11 10 9 9 9 10 10 9 9 8 7 6 5 5 5 5 5 5 6 6 7 7 8 8 9 9 10 10 11 11 11 12 12 13 13 14 15 15 16 16 17 18 18
27 27 26 25 24 23 21 19 18 17 16 15 15 15 15 15 15 15 14 13 12 11 9 8 8 9 9 10 10 10 10 9 9 8 8 8 8 8 8 8 8 8 9 9 9 10 10 10 10 11 11 12 12 13 13 14 14 15 15 16 17 17 18
28 28 28 27 26 25 23 22 20 19 17 17 16 16 15 15 15 15 14 13 12 11 10 8 7 7 7 8 9 9 10 10 11 11 10 10 10 9 9 9 9 9 9 10 10 10 10 11 11 12 12 13 13 14 14 14 15 15 15 15 16 16 16
Wind_Direction
283 282 281 280 280 279 278 276 274 272 270 269 268 267 266 265 264 263 262 261 260 260 258 257 256 255 254 253 252 251 251 250 249 248 248 248 248 246 245 243 242 242 240 239 238 238 238 238 237 237 237 238 238 237 237 236 237 239 240 241 241 241 242
285 283 282 281 280 280 279 278 276 274 271 269 268 267 266 265 264 263 262 261 260 259 259 257 256 255 254 253 252 251 250 249 248 247 246 246 246 246 246 244 243 242 240 239 238 238 238 238 238 237 237 237 238 238 237 237 236 237 238 239 239 240 241
287 286 284 283 282 282 281 280 279 277 275 272 269 268 267 266 265 264 263 262 261 259 258 257 256 255 254 253 252 251 250 249 247 246 245 244 244 244 244 244 243 242 240 239 237 237 237 237 238 237 237 237 237 238 238 237 237 237 238 239 239 240 240
290 289 287 286 285 284 283 283 282 280 279 276 273 271 269 267 266 265 264 263 261 260 259 257 256 255 254 253 252 251 250 249 248 246 245 243 243 242 242 243 243 243 241 239 238 236 236 236 237 237 237 237 237 237 238 238 238 238 238 239 240 241 242
292 291 289 288 287 286 285 285 284 283 281 280 278 275 273 270 268 267 265 264 263 261 260 258 257 255 254 254 253 251 250 249 248 247 245 244 242 242 241 241 241 242 241 240 239 237 236 235 236 237 237 237 237 237 237 238 238 238 238 239 239 240 240
293 292 290 289 288 287 286 284 284 283 282 280 279 277 275 273 271 269 267 265 264 263 262 260 258 256 255 254 253 252 251 249 248 247 246 245 243 242 241 240 239 240 240 240 239 238 236 235 235 235 236 237 237 237 237 237 238 238 239 239 239 239 238
294 293 291 290 288 287 286 285 284 283 282 281 280 279 278 276 274 272 269 267 265 264 263 261 260 258 257 255 253 252 251 250 248 247 246 245 244 243 242 240 239 238 239 239 239 238 237 235 235 235 235 235 236 237 237 237 237 238 238 238 239 239 237
295 294 292 291 290 289 288 287 286 284 283 283 282 281 279 278 276 275 272 270 267 265 263 261 260 259 258 257 255 253 251 250 249 247 246 245 244 243 242 241 240 239 238 237 238 238 237 236 235 235 235 235 235 236 236 237 237 237 237 238 238 239 238
296 295 294 293 291 291 289 288 287 286 284 283 282 281 280 279 278 277 275 273 270 267 265 262 260 258 257 256 256 254 252 251 249 248 246 245 244 243 242 241 240 239 238 237 236 236 237 236 236 235 235 235 235 235 236 236 236 236 237 237 237 238 238
297 296 295 294 293 292 290 289 288 286 285 283 282 281 280 280 279 278 277 275 272 270 267 264 261 259 256 255 255 254 253 251 250 249 247 246 244 243 243 242 241 240 238 237 236 235 235 235 235 235 235 235 235 235 235 235 236 236 236 236 236 237 238
298 297 296 295 294 293 292 290 289 287 285 284 284 283 282 281 280 279 278 276 274 271 269 266 263 260 257 254 253 252 252 251 250 250 248 247 245 243 242 242 241 240 239 238 237 236 234 234 233 234 235 235 235 235 235 236 235 235 235 236 236 236 237
301 300 298 296 295 294 293 291 290 288 287 286 286 285 285 284 283 281 279 277 275 272 269 266 263 261 258 255 253 251 250 250 249 249 248 247 246 244 243 242 241 241 240 239 237 236 235 234 233 233 233 234 235 235 236 236 236 236 235 235 235 235 236
303 302 300 299 298 297 295 293 292 291 290 289 288 287 286 286 286 285 282 279 276 272 269 266 263 260 258 256 253 251 249 248 248 248 248 247 247 245 244 242 241 240 240 240 238 237 236 235 233 233 232 233 234 234 235 236 237 237 236 236 236 236 236
305 304 303 303 303 302 300 298 296 295 294 291 289 287 287 288 289 288 285 281 277 273 270 266 263 260 257 255 253 251 249 248 247 247 247 247 246 246 245 243 241 240 240 240 239 238 237 236 235 233 232 232 233 233 234 235 236 237 237 237 236 236 236
307 307 307 307 307 307 305 303 302 301 298 295 292 291 291 293 293 291 287 283 278 275 272 269 265 262 258 255 253 252 250 249 248 247 246 246 246 245 245 244 242 240 239 239 239 238 237 236 236 234 233 233 232 232 233 234 235 236 237 237 237 237 237
308 309 310 310 309 309 307 306 307 307 305 302 301 299 299 297 295 292 290 287 283 279 276 272 268 265 261 258 255 253 252 250 249 247 246 245 245 245 244 244 243 241 240 239 238 238 238 237 236 235 234 234 233 233 233 233 234 235 236 237 238 238 238
309 311 313 311 309 309 307 307 309 310 309 308 308 308 306 302 298 296 295 294 291 288 284 279 275 270 266 262 259 256 253 252 250 248 246 245 244 244 243 243 242 241 240 239 238 238 237 237 236 236 235 235 235 234 233 233 234 235 235 236 237 238 238
311 314 314 312 311 311 310 312 313 314 313 313 313 313 312 310 307 305 302 299 296 292 288 283 278 273 269 265 261 257 254 252 250 248 246 244 243 242 242 242 241 241 240 240 238 238 238 237 236 236 235 235 235 235 234 234 234 234 235 236 237 237 238
312 314 314 313 314 315 317 319 320 320 320 319 317 317 316 314 312 309 305 300 296 292 288 283 278 273 268 265 261 258 255 252 249 247 244 242 241 241 241 241 241 240 240 239 239 238 238 237 236 236 235 235 236 236 235 235 235 235 235 236 236 237 237
311 313 313 314 317 321 324 327 327 327 327 324 322 322 319 316 314 313 312 309 305 300 296 291 286 281 275 270 265 260 256 251 246 245 245 244 243 242 241 240 239 239 238 238 238 237 237 237 236 236 235 235 235 236 236 236 235 235 236 236 236 237 237
309 310 312 317 322 326 331 333 334 335 334 330 329 327 324 322 323 323 322 321 318 314 309 304 298 292 285 279 273 265 256 251 248 247 247 247 245 242 240 238 237 237 237 237 237 237 236 236 236 236 235 235 235 235 235 236 236 236 236 236 237 237 237
305 306 311 317 321 325 329 332 334 338 338 336 334 332 329 328 329 329 327 327 327 324 321 316 310 303 295 287 279 269 260 256 255 252 249 247 244 241 239 238 237 236 235 236 236 236 236 236 235 235 235 235 235 235 235 235 236 236 236 237 237 237 238
297 300 307 313 316 319 321 324 327 331 335 336 335 334 333 332 333 332 330 330 330 330 330 327 323 320 313 300 285 271 263 261 260 255 248 244 242 239 237 236 235 234 234 234 235 235 236 235 235 235 234 234 235 235 235 235 235 236 236 237 237 238 238
289 293 302 309 312 315 317 318 320 323 327 331 333 334 334 334 335 336 335 333 332 333 335 335 333 331 327 316 298 278 267 265 263 257 248 242 238 235 235 234 234 233 233 233 234 234 235 235 235 234 234 234 234 234 235 235 235 235 236 236 237 238 238
282 287 298 306 310 313 315 317 319 320 322 325 328 329 331 333 335 337 337 336 336 335 335 337 338 337 333 323 308 291 275 267 263 258 249 240 234 232 232 233 231 230 230 230 231 232 233 233 234 234 233 233 233 233 233 234 235 235 236 236 237 237 238
277 283 293 303 308 311 314 316 319 321 323 324 326 326 326 328 331 334 336 336 334 334 336 337 340 343 344 337 322 303 282 264 256 250 241 232 225 222 225 228 227 225 225 226 227 228 229 229 230 230 231 230 231 231 232 233 234 234 235 236 237 237 238
273 279 289 299 305 309 313 316 319 322 323 324 326 327 325 323 323 327 332 334 334 334 336 337 340 345 350 352 352 344 308 247 230 225 219 212 207 205 209 214 215 214 215 217 219 220 221 222 223 224 225 225 226 227 228 230 231 232 234 235 236 237 238
269 275 283 293 302 306 310 314 318 323 325 325 326 327 326 322 320 319 321 325 330 333 335 335 336 340 344 351 360 14 42 123 164 178 181 182 184 185 187 190 191 194 197 201 204 207 209 211 213 215 217 218 220 221 223 225 227 229 231 232 234 235 237
265 272 278 286 295 301 306 312 317 322 326 327 327 328 327 324 321 318 313 311 314 322 329 335 337 336 337 339 345 360 66 113 135 148 152 156 161 166 170 173 175 176 179 181 184 188 193 196 200 204 208 211 213 216 219 221 224 226 228 229 231 233 234
261 267 274 279 287 295 300 307 315 321 325 328 329 329 329 327 324 321 315 308 303 304 310 320 329 335 337 337 338 347 102 141 143 147 149 149 152 156 160 164 166 167 169 171 172 175 178 182 186 191 195 199 204 208 212 215 218 221 224 226 228 230 232
257 261 269 274 279 286 293 300 309 317 323 328 331 331 331 330 328 325 320 312 304 297 293 294 300 311 323 329 332 344 25 165 161 158 158 156 156 157 159 161 162 163 165 168 170 172 174 177 180 183 186 190 194 198 202 206 210 214 217 220 224 226 229
256 255 261 268 272 276 282 291 300 309 317 325 330 333 334 333 331 330 327 320 309 298 289 282 277 278 283 291 297 306 301 165 160 162 162 162 162 162 161 162 163 163 165 167 170 173 175 177 180 183 186 189 192 195 199 202 205 208 213 217 221 224 227
256 253 254 260 266 269 273 279 289 299 308 317 326 332 335 335 335 334 333 329 321 307 293 281 273 267 264 263 261 258 249 226 201 187 178 170 167 165 163 164 165 165 166 168 170 173 175 178 182 185 189 192 195 198 201 204 207 211 215 219 223 227 230
255 253 251 253 258 262 266 271 279 288 297 307 317 326 332 335 337 337 337 336 332 322 306 289 276 267 260 255 251 247 241 234 227 221 210 198 190 184 180 177 174 174 174 174 175 177 180 183 185 189 191 195 198 201 204 207 211 215 219 223 227 231 234
254 253 250 249 251 255 259 263 269 277 287 296 305 315 324 331 335 337 338 339 338 335 326 309 288 272 262 255 249 244 238 231 226 224 218 212 206 200 194 189 186 185 185 184 184 185 186 187 190 192 195 198 202 205 208 211 214 218 221 225 229 232 236
253 253 251 248 248 250 253 257 262 268 276 284 293 303 312 321 329 334 337 340 340 340 337 328 312 288 268 255 246 241 235 228 222 219 215 211 207 203 199 194 191 191 190 189 190 190 190 192 194 196 199 202 204 207 210 213 215 219 222 226 229 233 237